Date,TemperatureHighF,TemperatureAvgF,TemperatureLowF,DewpointHighF,DewpointAvgF,DewpointLowF,HumidityHigh,HumidityAvg,HumidityLow,PressureMaxIn,PressureMinIn,WindSpeedMaxMPH,WindSpeedAvgMPH,GustSpeedMaxMPH,PrecipitationSumIn
2013-3-1,37.4,32.7,28.6,32.0,28.7,26.0,98,85,71,29.72,29.56,9,1,0,0.00
2013-3-2,35.8,31.8,28.4,28.0,26.2,24.0,85,80,72,29.71,29.66,6,2,0,0.00
2013-3-3,33.3,29.0,25.9,28.0,25.0,22.0,92,85,78,29.68,29.61,7,2,0,0.01
2013-3-4,35.3,28.4,22.4,25.0,21.9,18.0,85,77,63,29.80,29.64,9,3,0,0.02
2013-3-5,41.0,31.3,24.0,29.0,24.5,20.0,90,77,60,30.10,29.80,13,2,0,0.00
2013-3-6,33.8,31.3,28.4,32.0,30.1,27.0,97,95,90,30.12,30.06,23,6,0,0.19
2013-3-7,30.4,28.2,26.4,29.0,27.0,25.0,97,95,91,30.10,30.04,17,5,0,0.08
2013-3-8,33.7,29.5,26.8,33.0,28.0,24.0,98,94,81,30.21,29.98,11,3,0,0.10
2013-3-9,52.0,35.3,23.3,27.0,21.7,15.0,93,64,24,30.37,30.20,8,1,0,0.21
2013-3-10,44.7,32.4,17.3,31.0,25.9,16.0,96,79,55,30.43,30.32,5,1,0,0.01
2013-3-11,49.0,38.7,30.7,40.0,32.9,29.0,94,81,55,30.34,30.16,8,2,0,0.00
2013-3-12,49.8,46.2,40.9,50.0,45.3,40.0,99,96,90,30.15,29.73,12,3,0,0.59
2013-3-13,44.1,35.9,27.0,40.0,28.5,21.0,98,77,46,29.81,29.74,12,2,0,0.00
2013-3-14,31.6,25.3,17.5,25.0,14.8,7.0,77,65,54,29.87,29.75,11,3,0,0.00
2013-3-15,34.7,24.5,12.1,28.0,15.1,7.0,90,69,40,29.90,29.69,11,3,0,0.00
2013-3-16,33.4,27.8,19.7,25.0,16.5,11.0,88,65,43,29.91,29.73,7,1,0,0.00
2013-3-17,33.1,24.0,12.9,16.0,10.9,5.0,91,61,35,30.34,29.90,14,2,0,0.00
2013-3-18,34.4,22.6,7.0,23.0,7.5,1.0,91,56,28,30.48,30.25,7,1,0,0.00
2013-3-19,31.1,28.0,24.3,30.0,26.9,23.0,97,96,91,30.24,29.67,15,4,0,0.05
2013-3-20,32.4,25.0,18.1,23.0,20.1,16.0,95,82,63,29.84,29.73,9,2,0,0.15
2013-3-21,35.2,22.7,12.1,22.0,-0.6,-99.9,93,58,45,29.84,29.64,6,1,0,0.20
2013-3-22,35.2,26.7,16.8,21.0,17.3,12.0,82,68,53,29.79,29.65,7,2,0,0.12
2013-3-23,37.3,30.1,21.1,21.0,19.5,17.0,87,66,49,29.84,29.70,14,3,0,0.09
2013-3-24,43.3,13.8,29.5,25.0,-57.8,-99.9,66,18,48,29.85,29.76,8,1,0,0.03
2013-3-25,39.1,12.3,35.3,28.0,-59.2,-99.9,74,22,62,29.78,29.53,13,3,0,0.00
2013-3-26,44.3,18.7,26.2,29.0,-36.1,-99.9,84,32,43,29.82,29.57,10,1,0,0.01
2013-3-27,47.4,34.3,18.5,29.0,23.8,16.0,92,68,41,29.92,29.81,12,1,0,0.00
2013-3-28,46.3,37.3,32.0,33.0,30.9,28.0,95,79,51,30.07,29.92,5,1,0,0.02
2013-3-29,51.4,38.5,27.1,35.0,30.3,26.0,96,75,45,30.09,30.02,5,1,0,0.00
2013-3-30,51.6,38.9,26.2,30.0,24.4,19.0,95,62,29,30.14,30.05,11,1,0,0.00
2013-3-31,53.0,38.9,22.3,38.0,27.0,20.0,94,68,34,30.15,29.75,12,2,0,0.10